Wind_Speed
20 18 16 16 17 18 20 22 22 23 25 24 24 22 21 15 15 8 5 6 6 5 4 2 2 2 2 5 6 4 1 2 5 7 8 10 11 12 15 15 12 13 13 13 13 13 14 15 16
24 24 20 20 19 19 26 25 25 25 26 26 25 25 21 17 13 15 11 6 7 7 7 7 6 6 2 4 5 5 3 2 3 6 8 11 12 11 12 15 14 13 13 13 13 14 14 15 16
16 19 21 21 19 22 24 27 28 29 29 29 29 27 25 23 20 18 16 12 10 11 12 12 12 12 11 10 10 9 8 6 6 6 8 9 12 14 13 14 16 13 12 14 13 14 14 15 16
13 14 17 20 21 24 24 24 28 31 33 33 32 31 30 29 27 25 22 20 18 19 19 18 17 16 15 14 14 13 13 11 10 9 10 12 13 15 17 16 17 15 12 13 14 13 13 14 14
14 15 17 19 20 23 25 25 26 27 30 36 36 36 36 34 32 30 29 26 24 24 23 22 21 19 18 19 18 17 16 15 13 13 12 12 14 14 17 18 16 16 12 12 15 15 14 14 14
12 14 17 20 21 22 24 26 26 27 29 31 33 35 36 36 34 33 31 31 26 24 25 24 24 24 23 22 21 21 20 19 17 15 14 14 15 15 18 19 19 16 13 11 14 16 15 16 16
10 13 14 18 20 21 24 28 29 29 31 32 33 36 37 37 35 34 33 32 27 26 26 27 27 27 27 26 25 25 23 21 19 18 16 16 17 18 18 20 21 19 15 11 13 16 16 16 16
12 14 17 18 19 20 21 25 28 30 32 33 35 37 37 39 39 37 36 35 31 29 30 31 33 30 29 28 26 26 27 25 23 21 19 18 19 21 22 22 21 21 17 13 13 14 15 15 17
13 14 16 18 19 19 20 23 26 30 32 34 35 36 36 36 38 37 35 33 32 32 32 32 34 33 30 30 29 26 25 27 27 25 24 20 20 22 23 23 23 22 20 16 14 17 15 15 17
12 13 16 18 19 20 22 25 27 29 31 34 37 38 39 40 40 40 38 37 36 37 32 29 30 33 33 31 32 31 28 27 27 28 26 24 22 23 24 25 24 23 23 19 17 18 16 16 16
9 12 14 17 19 23 27 28 31 33 32 36 38 41 43 45 45 45 44 41 42 43 40 34 31 31 33 33 33 34 31 29 27 27 28 27 24 27 26 26 26 24 23 22 19 19 16 17 16
10 11 14 15 18 20 21 23 26 27 32 35 40 44 46 48 49 50 49 48 48 47 47 42 38 34 32 33 35 35 34 32 29 29 28 26 25 31 29 29 29 26 25 23 21 19 15 16 16
11 12 14 16 18 20 21 23 23 27 32 33 36 40 43 46 49 52 53 51 50 51 51 49 46 42 36 33 35 36 36 35 34 31 31 28 27 31 32 31 30 27 25 22 23 20 17 16 16
12 14 15 16 18 19 19 22 22 28 28 29 31 31 35 39 42 45 46 47 49 51 54 55 52 47 44 38 36 38 38 38 37 34 33 34 31 31 32 32 30 28 26 23 24 22 19 17 17
15 15 15 17 18 17 17 20 22 25 29 30 32 33 32 33 38 41 44 43 45 46 44 48 46 46 47 43 40 39 41 40 41 38 36 35 36 35 34 34 32 32 28 26 25 24 21 19 17
18 18 18 18 18 18 17 18 23 25 26 26 28 29 32 34 36 39 44 41 42 41 41 41 40 40 42 44 42 41 44 43 43 42 40 38 39 40 37 36 35 36 32 27 27 25 23 21 20
19 19 20 22 20 20 21 21 24 27 27 25 28 31 31 31 31 32 38 43 39 37 40 38 37 38 38 40 41 41 45 44 44 43 43 43 41 43 42 39 38 39 35 31 30 28 26 23 22
22 22 21 22 24 22 25 26 27 31 26 26 28 30 32 33 31 27 30 34 35 34 37 38 36 39 41 39 39 41 44 44 44 43 43 45 45 42 41 43 43 42 38 35 34 31 29 25 24
26 25 24 25 25 23 28 26 28 30 28 29 29 26 29 29 27 23 24 30 31 32 36 35 34 35 38 40 39 41 43 46 45 46 47 46 44 47 43 42 45 46 40 38 37 33 31 29 24
28 27 25 26 28 27 29 26 29 30 31 30 28 25 26 23 24 21 25 25 26 28 33 31 31 31 29 30 33 34 38 41 44 47 49 49 49 47 49 44 42 46 44 43 39 35 34 32 27
27 29 28 29 29 29 31 28 30 31 31 30 28 24 25 24 23 24 21 25 22 25 30 31 32 31 31 29 30 32 34 37 41 45 48 51 50 52 54 52 50 45 46 42 42 40 37 35 32
29 30 29 29 31 32 31 34 23 34 34 32 30 29 26 25 23 23 21 19 21 23 27 30 32 35 34 34 34 32 33 34 36 39 44 48 50 51 53 54 54 51 50 44 45 42 39 37 35
28 28 28 31 33 33 30 34 23 29 30 30 30 30 30 26 24 22 22 23 26 25 30 34 33 34 37 39 38 39 37 37 36 36 39 42 44 46 51 54 56 55 55 50 48 41 39 38 38
29 31 32 32 35 35 32 35 27 23 29 28 29 29 30 29 27 24 21 21 26 29 28 32 37 37 38 38 40 40 40 40 41 41 39 39 43 46 47 50 53 56 55 55 43 47 41 43 41
31 31 34 35 35 36 35 37 29 24 26 29 30 30 30 30 29 27 23 23 22 22 26 36 41 40 45 43 42 43 43 44 43 47 46 47 46 47 50 50 50 54 56 57 58 48 52 50 50
34 33 33 38 38 38 37 38 29 26 25 28 32 32 32 33 33 31 27 26 24 24 27 28 30 33 40 52 51 47 50 51 52 53 52 46 45 48 50 54 57 55 57 59 60 60 53 59 52
35 35 36 39 41 44 41 38 34 24 25 29 34 36 37 35 36 37 33 33 31 27 27 30 32 34 34 31 37 46 47 49 51 49 50 53 52 43 42 47 59 64 60 60 62 62 61 53 46
37 37 38 41 45 46 43 41 37 33 28 30 35 37 39 36 36 41 40 39 36 35 33 33 35 38 38 37 35 34 34 36 45 52 49 47 45 49 48 42 49 62 68 63 64 64 61 56 59
42 41 42 44 47 48 48 44 41 38 40 35 35 37 39 40 40 43 43 43 41 41 39 39 39 39 41 41 41 41 39 36 37 44 51 50 50 53 55 45 43 52 65 69 66 63 63 61 51
42 42 45 48 48 49 50 47 43 44 42 40 41 46 44 46 46 48 48 48 43 41 43 42 42 42 45 46 45 44 44 43 40 38 43 55 55 55 52 49 48 45 58 67 67 61 61 54 53
Wind_Direction
233 236 237 242 238 224 222 219 229 234 235 239 244 244 246 244 259 259 240 163 147 129 32 277 279 257 230 222 214 204 168 357 359 333 327 334 326 332 333 337 343 339 348 356 356 359 356 353 1
233 238 241 245 237 225 227 231 234 241 246 248 255 261 262 262 253 257 265 221 214 241 266 271 275 281 258 221 229 231 239 301 330 334 328 319 310 318 320 325 337 335 341 346 351 353 351 349 356
225 230 234 236 233 233 236 236 231 242 247 249 250 254 261 265 265 265 274 274 255 252 271 275 275 270 261 260 265 267 269 281 298 305 307 299 294 295 300 306 320 331 336 340 342 345 348 345 349
232 229 231 234 234 242 245 243 243 239 248 252 253 253 260 268 269 269 268 266 264 270 274 275 275 267 266 259 264 270 274 276 289 298 300 291 285 284 294 302 308 318 327 333 328 335 341 340 342
233 232 233 238 239 245 252 248 248 250 249 253 259 261 260 263 267 270 273 273 270 265 267 266 259 256 260 263 261 264 266 269 276 285 292 293 284 284 286 290 296 306 318 326 323 325 331 333 332
231 235 237 241 245 245 251 259 254 250 253 256 258 260 261 264 265 266 268 268 269 257 258 257 255 253 250 255 260 262 262 265 267 272 279 285 274 268 272 281 286 293 302 315 318 318 326 327 326
235 234 235 244 250 252 251 257 260 258 255 255 257 260 265 269 269 269 270 270 267 258 254 255 253 254 252 247 249 256 263 266 263 266 276 277 267 256 255 269 278 283 288 304 308 311 320 322 323
228 237 243 250 257 258 261 260 267 271 268 265 264 264 265 268 268 267 267 269 266 260 258 260 261 253 252 253 254 254 256 260 263 265 268 272 264 246 249 258 269 277 280 286 293 302 314 316 316
245 246 250 255 260 260 262 266 267 269 272 274 274 274 271 271 272 271 269 265 261 257 252 253 258 257 251 251 248 248 254 255 256 259 262 263 253 240 240 254 266 275 275 281 287 295 306 310 309
241 250 257 259 260 263 258 257 257 257 260 265 267 269 271 270 270 270 271 268 264 260 251 249 252 252 253 251 249 246 246 249 250 251 256 258 248 234 238 252 261 268 275 278 281 287 301 301 303
281 282 273 268 264 260 260 261 263 261 259 262 264 267 267 267 265 265 264 263 264 264 260 253 247 248 251 252 252 250 245 245 249 250 251 253 245 227 234 246 253 259 267 273 278 284 292 295 300
281 292 287 282 272 270 279 274 270 273 272 269 267 269 272 274 274 270 269 267 264 262 263 258 252 244 243 249 250 250 249 245 244 246 248 248 242 227 229 239 246 252 258 265 271 276 282 287 295
287 292 297 292 283 274 272 273 273 268 267 269 269 269 270 270 269 271 274 273 269 266 263 260 257 253 246 245 249 246 245 245 244 242 243 239 239 230 229 236 243 248 256 259 268 269 272 279 288
284 289 297 294 288 285 282 281 282 280 282 277 274 273 274 275 272 269 267 266 266 266 267 267 265 261 256 248 245 248 245 243 240 240 240 237 232 232 233 236 240 245 246 252 261 266 268 273 281
274 281 290 290 289 285 279 276 275 273 278 280 282 285 285 284 283 280 277 270 266 265 263 263 263 261 257 252 244 241 245 243 242 235 236 238 237 234 235 237 240 243 242 246 250 259 264 268 271
268 277 282 288 292 293 288 277 284 286 285 289 294 291 287 288 290 290 285 279 273 268 265 262 260 257 253 249 242 235 240 242 241 239 233 234 236 237 236 239 241 243 245 247 250 255 259 262 265
265 270 278 286 290 292 297 294 290 284 288 290 286 286 288 287 286 283 275 272 273 272 266 262 258 256 255 252 245 238 239 240 242 241 236 233 235 236 239 239 243 245 246 248 253 255 256 258 260
260 263 268 275 284 295 295 292 290 286 292 295 295 295 297 298 291 281 271 271 269 266 262 259 256 253 253 252 248 243 237 238 238 237 236 235 233 233 236 241 245 245 246 247 250 254 255 251 255
263 265 267 275 281 281 279 283 283 289 293 293 295 299 300 303 294 286 281 276 274 267 257 252 251 250 251 250 247 242 240 238 237 235 234 234 236 238 238 241 244 245 244 244 249 250 253 250 249
264 268 270 274 275 280 279 278 282 287 287 289 293 299 305 307 299 293 293 274 269 270 261 246 242 245 245 244 243 240 240 240 240 238 238 237 235 236 237 242 239 241 245 248 249 250 251 250 245
269 270 267 271 274 278 280 281 282 282 283 293 299 301 305 308 298 294 296 281 264 264 263 257 248 246 242 233 233 232 234 233 235 236 237 239 238 234 238 239 235 233 239 239 248 251 249 249 245
270 271 270 272 271 271 280 286 274 280 288 295 297 298 297 299 303 299 280 279 270 260 260 255 254 254 247 241 237 239 238 238 237 236 234 237 241 241 239 239 239 241 245 250 247 243 243 245 245
275 275 273 269 270 277 285 287 288 285 284 288 288 288 290 293 297 294 289 266 266 259 254 253 252 254 255 253 249 246 243 240 241 244 245 244 241 240 241 241 240 240 242 245 239 230 240 242 243
274 271 270 270 273 279 284 287 291 286 287 286 282 277 279 283 287 290 285 275 262 259 256 257 258 255 256 258 257 255 252 249 248 247 247 252 253 248 246 245 245 241 240 239 243 246 242 242 240
274 274 274 272 273 278 281 282 292 288 284 285 284 276 271 270 273 279 277 275 274 271 270 259 262 265 258 256 262 261 261 259 256 254 257 258 258 257 256 252 248 247 244 239 237 244 238 236 237
272 274 274 276 276 276 279 283 286 289 284 282 284 281 273 269 268 269 271 271 273 274 273 273 272 276 268 255 255 261 265 263 259 258 260 261 261 265 258 253 252 248 246 246 240 239 243 244 231
272 274 273 274 275 277 278 280 282 283 282 276 278 282 279 273 269 268 264 263 264 267 272 275 276 275 277 274 267 262 265 262 256 254 256 255 263 258 259 258 250 248 245 245 244 240 240 247 252
274 274 274 275 276 276 279 279 283 285 280 275 276 275 277 277 271 269 267 264 266 267 269 271 273 276 277 276 274 273 272 273 261 252 254 259 249 256 266 262 260 247 245 242 242 243 240 238 247
269 270 270 272 273 278 280 279 283 288 289 289 284 276 273 272 268 265 263 264 259 263 264 260 269 277 279 279 280 278 276 276 276 266 257 254 249 255 259 259 265 256 242 241 239 240 240 240 245
265 263 264 268 272 272 276 278 284 286 290 291 284 276 273 268 269 268 269 268 261 266 269 267 267 269 270 271 273 275 273 273 273 272 268 260 256 254 256 260 267 265 244 238 237 238 236 239 241
Height
5873 5875 5877 5878 5881 5879 5877 5878 5879 5881 5881 5882 5883 5886 5888 5894 5897 5899 5899 5902 5903 5903 5904 5906 5905 5906 5906 5905 5906 5907 5907 5908 5908 5909 5910 5910 5910 5911 5912 5912 5911 5912 5913 5914 5914 5913 5911 5910 5910
5870 5873 5875 5875 5875 5874 5873 5876 5877 5879 5880 5880 5881 5882 5886 5889 5892 5894 5896 5899 5900 5901 5902 5903 5904 5905 5905 5905 5905 5906 5906 5907 5907 5908 5908 5909 5909 5910 5910 5911 5911 5911 5913 5914 5913 5913 5912 5910 5909
5868 5870 5871 5871 5870 5870 5872 5874 5876 5876 5878 5878 5878 5881 5884 5886 5889 5891 5893 5896 5897 5898 5900 5900 5901 5902 5903 5904 5905 5905 5905 5906 5906 5906 5907 5908 5908 5908 5908 5909 5910 5910 5912 5913 5912 5912 5911 5909 5908
5866 5867 5868 5867 5867 5867 5870 5871 5872 5874 5875 5876 5878 5879 5883 5884 5886 5888 5890 5892 5894 5895 5896 5896 5897 5899 5900 5901 5903 5903 5904 5904 5904 5904 5905 5906 5906 5907 5906 5907 5908 5909 5910 5911 5910 5910 5909 5908 5907
5863 5864 5864 5864 5865 5866 5866 5868 5869 5872 5874 5873 5875 5877 5878 5881 5882 5884 5886 5888 5891 5891 5891 5892 5893 5894 5896 5897 5899 5900 5901 5901 5901 5901 5902 5903 5903 5904 5904 5904 5905 5907 5909 5909 5909 5908 5908 5907 5907
5860 5861 5861 5861 5862 5863 5863 5863 5865 5867 5868 5869 5871 5872 5873 5875 5879 5881 5883 5884 5886 5887 5887 5887 5888 5890 5891 5893 5894 5896 5898 5898 5898 5899 5899 5900 5900 5901 5901 5902 5903 5904 5906 5907 5907 5907 5906 5906 5906
5858 5858 5858 5858 5858 5860 5861 5859 5860 5863 5863 5865 5866 5866 5867 5869 5872 5875 5877 5880 5882 5883 5882 5883 5883 5884 5886 5887 5889 5891 5892 5893 5894 5895 5896 5896 5896 5898 5898 5899 5900 5901 5903 5904 5904 5904 5904 5903 5903
5855 5855 5855 5855 5856 5858 5858 5857 5856 5857 5858 5860 5861 5862 5864 5864 5866 5870 5871 5873 5876 5877 5877 5877 5876 5878 5880 5882 5883 5885 5887 5889 5890 5891 5891 5892 5893 5894 5895 5895 5896 5898 5900 5901 5902 5902 5903 5901 5900
5852 5852 5852 5852 5852 5854 5855 5854 5854 5853 5852 5853 5853 5854 5856 5857 5858 5861 5863 5865 5868 5870 5872 5872 5871 5872 5875 5876 5877 5879 5881 5883 5885 5886 5887 5887 5888 5889 5891 5892 5894 5895 5896 5898 5899 5900 5900 5899 5898
5848 5849 5848 5848 5848 5848 5849 5849 5848 5848 5847 5845 5845 5846 5846 5848 5850 5851 5853 5855 5858 5860 5864 5866 5866 5867 5869 5870 5872 5872 5874 5877 5879 5880 5881 5882 5883 5885 5887 5888 5890 5891 5892 5894 5896 5897 5897 5897 5896
5845 5845 5844 5844 5843 5842 5841 5843 5842 5842 5843 5841 5840 5838 5837 5837 5839 5841 5844 5846 5847 5849 5853 5857 5860 5861 5862 5864 5865 5867 5868 5871 5873 5874 5874 5875 5877 5879 5881 5883 5884 5887 5888 5888 5892 5893 5894 5894 5893
5841 5840 5839 5839 5838 5838 5838 5838 5838 5838 5836 5836 5834 5832 5831 5831 5832 5833 5835 5837 5837 5839 5842 5846 5850 5853 5855 5856 5858 5860 5862 5864 5866 5867 5869 5869 5870 5872 5875 5877 5879 5881 5883 5884 5886 5890 5890 5890 5889
5836 5836 5834 5833 5833 5832 5832 5831 5832 5830 5828 5828 5829 5827 5825 5824 5823 5822 5823 5827 5830 5831 5831 5834 5838 5843 5848 5849 5850 5852 5854 5857 5859 5860 5863 5864 5865 5866 5867 5870 5873 5876 5879 5879 5880 5885 5886 5886 5886
5832 5831 5830 5828 5827 5828 5828 5826 5827 5824 5824 5822 5821 5821 5819 5817 5815 5814 5815 5817 5818 5820 5821 5823 5827 5831 5836 5840 5842 5843 5846 5848 5850 5853 5856 5858 5860 5861 5863 5864 5866 5869 5872 5875 5876 5878 5881 5882 5883
5826 5826 5825 5824 5823 5823 5824 5823 5821 5819 5817 5817 5815 5813 5813 5812 5808 5807 5805 5808 5808 5809 5812 5813 5816 5819 5822 5827 5831 5834 5836 5839 5842 5845 5848 5852 5855 5855 5857 5858 5860 5862 5865 5869 5870 5873 5875 5877 5877
5820 5820 5819 5818 5818 5817 5818 5817 5814 5812 5811 5811 5809 5807 5805 5803 5801 5799 5797 5799 5798 5801 5802 5804 5806 5808 5811 5814 5819 5823 5825 5829 5832 5837 5840 5844 5846 5849 5851 5853 5855 5855 5859 5863 5866 5868 5870 5871 5873
5815 5813 5812 5811 5811 5810 5809 5810 5808 5806 5806 5805 5803 5800 5799 5797 5794 5792 5790 5789 5790 5793 5793 5796 5798 5798 5801 5804 5808 5812 5815 5819 5822 5827 5832 5835 5838 5841 5844 5847 5849 5849 5854 5857 5861 5863 5864 5866 5868
5809 5808 5806 5805 5804 5803 5801 5803 5801 5798 5800 5798 5796 5794 5791 5787 5785 5784 5783 5781 5781 5783 5785 5787 5789 5790 5791 5794 5798 5802 5805 5809 5812 5816 5822 5826 5829 5832 5836 5839 5841 5842 5847 5851 5854 5856 5859 5861 5862
5802 5801 5800 5798 5796 5798 5796 5797 5794 5792 5791 5791 5790 5788 5784 5780 5777 5776 5776 5775 5775 5774 5776 5778 5780 5781 5783 5785 5788 5791 5795 5799 5804 5807 5810 5815 5820 5824 5828 5831 5833 5835 5840 5843 5846 5850 5852 5855 5857
5795 5795 5794 5793 5790 5791 5789 5791 5787 5786 5785 5784 5784 5781 5778 5774 5772 5772 5770 5768 5768 5768 5769 5772 5773 5774 5776 5778 5780 5783 5786 5791 5795 5798 5801 5804 5809 5813 5817 5821 5824 5827 5832 5836 5839 5843 5846 5849 5851
5788 5788 5787 5787 5784 5783 5781 5783 5781 5778 5778 5778 5776 5775 5771 5770 5767 5766 5765 5763 5762 5763 5764 5766 5767 5768 5769 5771 5773 5775 5777 5780 5783 5786 5790 5793 5797 5802 5806 5810 5815 5818 5820 5827 5831 5835 5838 5841 5844
5781 5780 5780 5779 5777 5776 5775 5772 5779 5771 5769 5769 5767 5766 5765 5764 5762 5760 5759 5758 5759 5760 5760 5760 5761 5761 5762 5763 5766 5768 5771 5773 5775 5778 5781 5784 5788 5792 5796 5800 5805 5808 5810 5816 5820 5826 5831 5831 5834
5775 5773 5772 5769 5767 5767 5769 5765 5771 5766 5764 5762 5761 5759 5757 5757 5756 5755 5754 5753 5753 5752 5753 5753 5753 5753 5753 5755 5757 5760 5763 5765 5767 5770 5773 5776 5778 5781 5785 5788 5792 5798 5802 5805 5800 5812 5821 5823 5826
5767 5765 5763 5762 5760 5760 5760 5756 5761 5761 5756 5755 5754 5753 5751 5750 5749 5749 5748 5747 5747 5747 5746 5746 5746 5746 5746 5747 5749 5751 5755 5757 5761 5763 5765 5767 5769 5772 5776 5779 5782 5787 5791 5796 5799 5805 5811 5814 5819
5758 5756 5754 5753 5752 5752 5751 5748 5753 5752 5749 5747 5746 5745 5744 5743 5742 5741 5741 5740 5739 5739 5739 5738 5738 5738 5738 5738 5739 5742 5744 5747 5750 5752 5755 5757 5760 5763 5765 5767 5772 5775 5779 5784 5792 5792 5795 5803 5807
5749 5748 5746 5741 5742 5742 5741 5740 5744 5743 5741 5739 5736 5735 5734 5734 5733 5733 5733 5732 5731 5731 5731 5730 5729 5728 5726 5726 5729 5731 5734 5735 5737 5740 5742 5745 5748 5750 5752 5754 5758 5762 5767 5771 5777 5782 5784 5793 5796
5739 5738 5737 5733 5731 5729 5732 5734 5734 5736 5734 5731 5727 5725 5724 5724 5724 5723 5724 5722 5722 5722 5722 5721 5720 5718 5718 5717 5718 5720 5722 5721 5723 5725 5728 5732 5734 5735 5737 5739 5742 5747 5752 5758 5763 5769 5775 5782 5785
5729 5726 5725 5722 5719 5718 5720 5720 5722 5724 5725 5723 5719 5716 5715 5714 5713 5711 5712 5712 5712 5711 5711 5709 5709 5708 5707 5708 5709 5709 5709 5708 5709 5713 5716 5718 5719 5721 5722 5725 5726 5730 5738 5743 5748 5756 5764 5771 5777
5717 5715 5713 5710 5709 5707 5706 5710 5710 5712 5710 5711 5709 5707 5704 5702 5700 5699 5699 5698 5699 5699 5698 5698 5697 5695 5695 5696 5696 5696 5696 5696 5696 5697 5700 5703 5706 5706 5708 5711 5711 5713 5720 5729 5735 5742 5752 5759 5767
5705 5704 5701 5697 5698 5696 5695 5698 5701 5700 5701 5700 5695 5690 5690 5689 5688 5686 5686 5686 5688 5687 5686 5685 5684 5684 5683 5683 5684 5684 5684 5684 5684 5684 5685 5686 5690 5692 5693 5696 5699 5700 5702 5711 5722 5731 5741 5750 5759